Haleyville, AL

5:45 PM CST on December 04, 2016 (GMT -0600)
Haleyville

Weather History for K1M4 - February, 2013

Change the Weather History Date:

Monday, February 25, 2013

  Actual Average (KJFX) Record (KJFX)
Temperature  
Mean Temperature 48 °F -  
Max Temperature 55 °F 60 °F 76 °F (1972)
Min Temperature 41 °F 32 °F 10 °F (1967)
Degree Days  
Heating Degree Days 17    
Moisture  
Dew Point 39 °F    
Average Humidity 72    
Maximum Humidity 97    
Minimum Humidity 52    
Precipitation  
Precipitation 0.01 in - - ()
Sea Level Pressure  
Sea Level Pressure 29.82 in    
Wind  
Wind Speed 9 mph (ESE)    
Max Wind Speed 21 mph    
Max Gust Speed 34 mph    
Visibility 10 miles    
Events Rain    
Averages and records for this station are not official NWS values.
T = Trace of Precipitation, MM = Missing Value Source: NWS Daily Summary

Daily Weather History Graph

Daily Weather History Graph

Search for Another Location

Airport or City:

Trip Planner

Search our weather history database for the weather conditions in past years. The results will help you decide how hot, cold, wet, or windy it might be!

Date:

Astronomy

Feb. 25, 2013 Rise Set
Actual Time 6:23 AM CST 5:43 PM CST
Civil Twilight 5:58 AM CST 6:08 PM CST
Nautical Twilight 5:29 AM CST 6:37 PM CST
Astronomical Twilight 5:00 AM CST 7:06 PM CST
Moon 5:53 PM CST (2/25) 5:55 AM CST (2/25)
Length of Visible Light 12h 10m
Length of Day
11h 19m
Full, 100% of the Moon is Illuminated
Feb 25
Full
Feb 25
Full
Mar 4
Last Quarter
Mar 11
New
Mar 19
First Quarter

Hourly Weather History & Observations

Time (CST) Temp. Windchill Dew Point Humidity Pressure Visibility Wind Dir Wind Speed Gust Speed Precip Events Conditions
12:56 AM 41.9 °F 39.0 °F 29.1 °F 61% 29.98 in 10.0 mi Variable 4.6 mph - N/A   Clear
1:56 AM 43.0 °F 40.3 °F 30.0 °F 60% 29.97 in 10.0 mi ENE 4.6 mph - N/A   Clear
2:56 AM 41.9 °F 39.0 °F 30.0 °F 63% 29.95 in 10.0 mi Variable 4.6 mph - N/A   Clear
3:56 AM 43.0 °F 40.3 °F 30.0 °F 60% 29.94 in 10.0 mi ENE 4.6 mph - N/A   Clear
4:56 AM 43.0 °F 38.8 °F 29.1 °F 58% 29.95 in 10.0 mi ENE 6.9 mph - N/A   Clear
5:56 AM 43.9 °F 40.5 °F 29.1 °F 56% 29.94 in 10.0 mi ENE 5.8 mph - N/A   Mostly Cloudy
6:56 AM 43.0 °F 40.3 °F 30.0 °F 60% 29.95 in 10.0 mi Variable 4.6 mph - 0.00 in Rain Light Rain
7:56 AM 43.9 °F 40.5 °F 31.1 °F 61% 29.97 in 10.0 mi East 5.8 mph - 0.00 in Rain Light Rain
8:56 AM 45.9 °F 41.7 °F 30.0 °F 54% 29.95 in 10.0 mi East 8.1 mph - 0.00 in   Overcast
9:40 AM 48.2 °F - 32.0 °F 54% 29.89 in 10.0 mi Variable 6.9 mph - N/A   Overcast
9:56 AM 48.9 °F - 32.9 °F 54% 29.93 in 10.0 mi East 9.2 mph 18.4 mph N/A   Overcast
10:56 AM 52.0 °F - 34.9 °F 52% 29.91 in 10.0 mi East 11.5 mph - N/A   Overcast
11:56 AM 54.0 °F - 41.0 °F 62% 29.89 in 10.0 mi ESE 13.8 mph 17.3 mph N/A   Overcast
12:56 PM 52.9 °F - 43.0 °F 69% 29.86 in 10.0 mi ESE 16.1 mph 19.6 mph N/A   Overcast
1:56 PM 54.9 °F - 45.9 °F 72% 29.84 in 10.0 mi SE 12.7 mph - N/A   Overcast
2:56 PM 54.9 °F - 46.9 °F 75% 29.81 in 10.0 mi East 10.4 mph 16.1 mph N/A   Overcast
3:56 PM 55.9 °F - 47.8 °F 74% 29.76 in 10.0 mi ESE 16.1 mph 25.3 mph N/A   Overcast
4:56 PM 54.0 °F - 47.8 °F 80% 29.76 in 10.0 mi SE 9.2 mph 23.0 mph N/A   Overcast
5:56 PM 52.9 °F - 46.9 °F 80% 29.75 in 10.0 mi SE 11.5 mph 19.6 mph N/A   Overcast
6:56 PM 52.0 °F - 46.9 °F 83% 29.74 in 10.0 mi ESE 16.1 mph 25.3 mph N/A   Overcast
7:56 PM 50.9 °F - 45.9 °F 83% 29.69 in 10.0 mi SE 12.7 mph 28.8 mph N/A   Overcast
8:32 PM 48.2 °F - 46.4 °F 93% 29.64 in 6.0 mi ESE 12.7 mph 21.9 mph 0.00 in Rain Light Rain
8:56 PM 48.9 °F - 46.9 °F 93% 29.67 in 8.0 mi ESE 12.7 mph 21.9 mph 0.01 in Rain Light Rain
9:19 PM 48.2 °F - 46.4 °F 93% 29.58 in 10.0 mi ESE 15.0 mph 23.0 mph 0.00 in   Overcast
9:56 PM 47.8 °F - 45.9 °F 93% 29.61 in 10.0 mi ESE 19.6 mph 34.5 mph 0.00 in   Overcast
10:56 PM 48.9 °F - 46.9 °F 93% 29.57 in 10.0 mi SE 15.0 mph 29.9 mph N/A   Overcast
11:56 PM 47.8 °F - 46.9 °F 97% 29.53 in 8.0 mi SE 20.7 mph 28.8 mph 0.00 in Rain Light Rain